TimeEET,TemperatureF,Dew PointF,Humidity,Sea Level PressureIn,VisibilityMPH,Wind Direction,Wind SpeedMPH,Gust SpeedMPH,PrecipitationIn,Events,Conditions,WindDirDegrees,DateUTC
12:00 AM,50.0,48.2,94,30.09,6.2,SW,4.6,-,N/A,,Scattered Clouds,220,2012-12-11 22:00:00
2:00 AM,50,46,81,30.09,6,SW,4.6,,,,Partly Cloudy,220,2012-12-12 00:00:00
2:00 AM,50.0,46.4,87,30.09,6.2,SW,4.6,-,N/A,,Scattered Clouds,220,2012-12-12 00:00:00
3:00 AM,50.0,46.4,87,30.09,6.2,SW,3.5,-,N/A,,Scattered Clouds,230,2012-12-12 01:00:00
4:00 AM,48.2,46.4,93,30.09,6.2,SW,5.8,-,N/A,,Scattered Clouds,220,2012-12-12 02:00:00
5:00 AM,46.4,44.6,93,30.06,6.2,South,2.3,-,N/A,,Scattered Clouds,190,2012-12-12 03:00:00
6:00 AM,46.4,44.6,93,30.06,6.2,SSW,2.3,-,N/A,,Scattered Clouds,200,2012-12-12 04:00:00
7:00 AM,46.4,44.6,93,30.09,6.2,South,2.3,-,N/A,,Partly Cloudy,190,2012-12-12 05:00:00
8:00 AM,51,45,73,30.10,6,South,2.3,,,,Scattered Clouds,170,2012-12-12 06:00:00
8:00 AM,51.8,44.6,76,30.09,6.2,South,2.3,-,N/A,,Partly Cloudy,170,2012-12-12 06:00:00
9:00 AM,57.2,51.8,82,30.09,6.2,SSW,2.3,-,N/A,,Scattered Clouds,210,2012-12-12 07:00:00
10:00 AM,60.8,50.0,68,30.12,6.2,SW,9.2,-,N/A,,Scattered Clouds,230,2012-12-12 08:00:00
11:00 AM,64.4,48.2,56,30.12,6.2,SW,12.7,-,N/A,,Scattered Clouds,230,2012-12-12 09:00:00
12:00 PM,64.4,48.2,56,30.04,6.2,SW,9.2,-,N/A,,Scattered Clouds,230,2012-12-12 10:00:00
1:00 PM,66.2,46.4,49,30.06,6.2,SW,11.5,-,N/A,,Scattered Clouds,230,2012-12-12 11:00:00
2:00 PM,65,45,37,30.06,6,WSW,11.5,,,,Partly Cloudy,240,2012-12-12 12:00:00
2:00 PM,64.4,44.6,49,30.06,6.2,WSW,11.5,-,N/A,,Scattered Clouds,240,2012-12-12 12:00:00
3:00 PM,64.4,44.6,49,30.06,6.2,SW,11.5,-,N/A,,Scattered Clouds,230,2012-12-12 13:00:00
4:00 PM,64.4,44.6,49,30.06,6.2,West,11.5,-,N/A,,Scattered Clouds,270,2012-12-12 14:00:00
5:00 PM,60.8,44.6,55,30.06,6.2,West,9.2,-,N/A,,Scattered Clouds,260,2012-12-12 15:00:00
6:00 PM,59.0,44.6,59,30.09,6.2,West,4.6,-,N/A,,Scattered Clouds,260,2012-12-12 16:00:00
7:00 PM,57.2,44.6,63,30.09,6.2,WSW,4.6,-,N/A,,Scattered Clouds,250,2012-12-12 17:00:00
8:00 PM,56,45,57,30.11,6,West,4.6,,,,Partly Cloudy,260,2012-12-12 18:00:00
8:00 PM,55.4,44.6,67,30.09,6.2,West,4.6,-,N/A,,Scattered Clouds,260,2012-12-12 18:00:00
9:00 PM,50.0,44.6,82,30.09,6.2,South,4.6,-,N/A,,Partly Cloudy,180,2012-12-12 19:00:00
10:00 PM,51.8,42.8,71,30.09,6.2,Calm,Calm,-,N/A,,Scattered Clouds,0,2012-12-12 20:00:00
11:00 PM,51.8,44.6,76,30.09,6.2,NNW,4.6,-,N/A,,Scattered Clouds,340,2012-12-12 21:00:00